Regional Weather Roundup
Issued by NWS

Home | Current Version | Previous Version | Text Only | Print | Product List | Glossary On
Versions: 1 2 3 4 5 6 7 8 9 10 11 12 13 14 15 16 17 18 19 20 21 22 23 24 25 26 27 28 29 30 31 32 33 34 35 36 37 38 39 40 41 42 43 44 45 46 47 48 49 50
000
ASCA44 KEWX 230020
RWRMX

LATIN AMERICA AND CARIBBEAN REGIONAL WEATHER ROUNDUP
NATIONAL WEATHER SERVICE AUSTIN/SAN ANTONIO TX
600 PM CST WED FEB 22 2017

NOTE: "FAIR" INDICATED FEW OR NO CLOUDS BELOW 12,000 FEET WITH NO
SIGNIFICANT WEATHER AND/OR OBSTRUCTIONS TO VISIBILITY.

BAJA CALIFORNIA

CITY           SKY/WX    TMP DP  RH WIND       PRES   REMARKS
LORETO         SUNNY     79  64  61 CALM      29.85S
LA PAZ         SUNNY     82  46  28 NW6       29.89S
MEXICALI       MOSUNNY   75  25  15 W25       29.83F
S.J. DEL CABO  SUNNY     77  57  50 SE6       29.90R
TIJUANA        MOSUNNY   57  43  58 W10       30.10S

NORTHWESTERN MEXICO

CITY           SKY/WX    TMP DP  RH WIND       PRES   REMARKS
CULIACAN       SUNNY     75  64  69 S8        29.87S
DURANGO        SUNNY     75  -4   4 E5        30.12F
GUAYMAS        SUNNY     79  63  57 S12       29.77F
HERMOSILLO     SUNNY     91  45  19 SW9       29.83F
CD. JUAREZ     SUNNY     79  37  22 SW7       29.84F
LOS MOCHIS     SUNNY     77  61  57 SW14      29.85S
OBREGON        SUNNY     84  59  42 S2        29.81S

NORTHEASTERN MEXICO

CITY           SKY/WX    TMP DP  RH WIND       PRES   REMARKS
CHIHUAHUA      SUNNY     84  21  10 S12       29.93F
MATAMOROS      CLEAR     82  54  36 E12       29.81S
MONCLOVA       CLEAR     97  32  10 CALM      29.83F HX  91
MONTERREY      CLEAR     95  10   4 E5        29.80S
NUEVO LAREDO   CLEAR     95  30  10 CALM      29.78S
PIEDRAS NEGRAS CLEAR     91  52  25 CALM      29.79F
REYNOSA        CLEAR     88  27  11 E5        29.79S
SALTILLO       CLEAR     79  39  24 N9        30.09S
TORREON        SUNNY     84  14   7 NE7       29.98F
CD. VICTORIA   CLEAR     95  18   6 SE2       29.82S

WESTERN MEXICO

CITY           SKY/WX    TMP DP  RH WIND       PRES   REMARKS
AGUASCALIENTES SUNNY     77  -4   4 CALM      30.13S
COLIMA         SUNNY     77  55  47 SW17      29.96R
DEL BAJIO      SUNNY     79  48  34 S5        30.16S
GUADALAJARA      N/A    N/A N/A N/A MISG        N/A
MANZANILLO     SUNNY     77  68  73 SW12      29.87R
MAZATLAN       SUNNY     75  66  73 NW8       29.88S
P. VALLARTA    MOSUNNY   75  72  88 SW12      29.88R
URUAPAN        SUNNY     72  39  30 S9        30.09S
ZACATECAS      SUNNY     73  18  12 E9        30.18F

CENTRAL MEXICO

CITY           SKY/WX    TMP DP  RH WIND       PRES   REMARKS
CUERNAVACA     PTCLDY    84  41  21 S5        29.97R
MEXICO CITY    CLEAR     73  19  13 CALM      30.18S
MORELIA        CLEAR     77  34  20 S10       30.10S
POZA RICA      CLEAR     88  50  27 CALM      29.89S
PUEBLA         CLEAR     70  34  26 S15       30.18
QUERETARO      CLEAR     77  14   9 NE8       30.17R
S. LUIS POTOSI CLEAR     75 -11   3 NE9       30.12F
TAMPICO        CLEAR     84  55  37 S14       29.83S
TOLUCA         PTCLDY    66  37  34 S12       30.28R

SOUTHERN MEXICO

CITY           SKY/WX    TMP DP  RH WIND       PRES   REMARKS
ACAPULCO       PTCLDY    81  73  78 W9        29.82R
B. DE HUATULCO PTCLDY    81  68  65 S12       29.89S
OAXACA         MOCLDY    81  41  24 E20       30.04R
P. ESCONDIDO   MOCLDY    82  73  74 W7        29.94R
VERACRUZ       PTCLDY    84  52  32 E5        29.88R
ZIHUATANEJO    SUNNY     82  70  65 W12       29.84S

YUCATAN PENINSULA

CITY           SKY/WX    TMP DP  RH WIND       PRES   REMARKS
CAMPECHE       PTCLDY    79  61  53 NW12G23   29.86F
CANCUN         PTCLDY    75  55  50 NW8       29.82R
CHETUMAL       CLEAR     84  52  32 NW9       29.79R
CD. DEL CARMEN CLEAR     79  61  53 NW7       29.89S
COZUMEL        CLEAR     79  57  47 NW21      29.78R
MERIDA         MOCLDY    77  57  50 W12G25    29.86R
MINATITLAN     CLEAR     82  75  78 CALM      29.88S
TAPACHULA      PTCLDY    84  72  65 SW7       29.80R
TUX. GUTIERREZ CLEAR     81  52  36 W21       29.88R
VILLAHERMOSA   PTCLDY    81  59  47 CALM      29.90S

CENTRAL AMERICA

CITY           SKY/WX    TMP DP  RH WIND       PRES   REMARKS
BELIZE CITY    PTCLDY    84  61  45 SW3       29.80R
MANAGUA        PTCLDY    90  68  48 NW7       29.74S HX  93

CARIBBEAN

CITY           SKY/WX    TMP DP  RH WIND       PRES   REMARKS
ARUBA          PTCLDY    79  70  73 NE8       29.83R
CURACAO          N/A     79  70  73 NE10      29.83S
KINGSTON       PTCLDY    81  68  65 S8        29.83R
NASSAU         MOCLDY    73  70  88 SE10      29.74F
SAN JUAN       PTCLDY    77  70  78 NE8       29.89R
SANTO DOMINGO  PTCLDY    77  70  78 SE5       29.83R
ST. CROIX      MOCLDY    75  66  73 CALM      29.89R
ST. KITTS      PTCLDY    75  66  73 N7        29.86S
ST. MAARTEN    PTCLDY    75  68  78 VRB3      29.86S
ST. THOMAS     PTCLDY    77  66  69 E9        29.88R

$$





USA.gov is the U.S. government's official web portal to all federal, state and local government web resources and services.